Location: Sihaung
(22.8641°N, 94.0549°E)
Time: 13:52:26
(UTC+00:00)

MOS 1 Rocket - Pass Details

Date: 03 March 2021
Orbit: 615 x 829 km, 97.4° (Epoch: 10 April)

Event Time Altitude Azimuth Distance (km) Brightness Sun altitude
Rises 23:01:19 0° 165° (SSE) 2,872 6.7 -15.0°
Reaches altitude 10° 23:03:29 10° 163° (SSE) 1,967 5.9 -14.5°
Maximum altitude 23:07:43 76° 79° (ENE) 639 3.2 -13.5°
Drops below altitude 10° 23:12:03 10° 353° (N) 2,008 5.6 -12.5°
Sets 23:14:17 0° 352° (N) 2,938 6.4 -12.0°
